Flag for Norway Weather past 2 weeks in Fevik, Norway

Now
60 °F

Cool.


Feels Like: 57 °F
Forecast: 54 / 58 °F
Wind: 12 mph from South

Location: Torungen Fyr

Current Time: Sep 2, 2015 at 7:01:55 PM

Latest Report: Sep 2, 2015 at 6:00 PM


Visibility: N/A

Pressure: 29.61 "Hg

Humidity: 83%

Dew point: 54 °F

Location of FevikLocation

Historic Weather in Fevik — Graph

°F

Fevik temperature yesterday

Maximum temperature yesterday: 60 °F (at 12:00 AM)
Minimum temperature yesterday: 56 °F (at 3:00 PM)
Average temperature yesterday: 58 °F

Past Weeks' High & Low Weather Summary

 TemperatureHumidityPressure
High67 °F (Aug 23, 8:00 PM)97% (Aug 26, 2:00 PM)30.34 "Hg (Aug 26, 2:00 PM)
Low53 °F (Aug 31, 7:00 AM)59% (Aug 28, 3:00 PM)29.38 "Hg (Sep 2, 8:00 AM)
Average62 °F83%29.97 "Hg
* Reported Aug 18 5:00 PM — Sep 2 5:00 PM, Fevik, Weather by CustomWeather, © 2015

Note: Actual official high and low records may vary slightly from our data, if they occured in-between our weather recording intervals... More about our weather records

Advertising

Fevik weather history for previous 24 hours

 ConditionsComfort  
Time TempWeatherWind HumidityBarometerVisibility
5:00 PM
Wed, Sep 2
60 °FCool.12 mph84%29.60 "HgN/A
4:00 PM59 °FCool.13 mph89%29.59 "HgN/A
3:00 PM59 °FCool.12 mph91%29.58 "HgN/A
2:00 PM59 °FCool.13 mph90%29.56 "HgN/A
1:00 PM58 °FCool.8 mph93%29.55 "HgN/A
12:00 PM58 °FCool.14 mph93%29.53 "HgN/A
11:00 AM58 °FCool.17 mph90%29.50 "HgN/A
10:00 AM59 °FCool.18 mph91%29.47 "HgN/A
9:00 AM59 °FCool.20 mph90%29.44 "HgN/A
8:00 AM59 °FCool.20 mph93%29.38 "HgN/A
7:00 AM60 °FCool.8 mph93%29.41 "HgN/A
6:00 AM61 °FCool.6 mph96%29.41 "HgN/A
5:00 AM57 °FCool.20 mph96%29.41 "HgN/A
4:00 AM58 °FCool.16 mph97%29.47 "HgN/A
3:00 AM57 °FCool.18 mph96%29.50 "HgN/A
2:00 AM57 °FCool.18 mph96%29.53 "HgN/A
1:00 AM57 °FCool.16 mph96%29.57 "HgN/A
12:00 AM57 °FCool.16 mph96%29.60 "HgN/A
10:00 PM
Tue, Sep 1
57 °FCool.16 mph95%29.65 "HgN/A
9:00 PM59 °FCool.21 mph97%29.65 "HgN/A
8:00 PM59 °FCool.20 mph95%29.66 "HgN/A
7:00 PM58 °FCool.18 mph94%29.67 "HgN/A
Weather by CustomWeather, © 2015

See weather overviewHow to use our weather pages